Date String (YYYY-MM-DD hh:mm:ss) UTC,Instrument flags,Ambient pressure (hPa),Sample flow (lpm),Bypass flow (lpm),Sample temperature (°C),Ambient temperature (°C),ASC tube jacket temperature (°C),LED temperature (°C),Box temperature (°C),Sample RH (%),Span deviation,Mass concentration (μg/m³),Mass concentration (μg/m³),Mass concentration (μg/m³)
DateTimeUTC,F1_M11,P_M11,Q1_M11,Q2_M11,T1_M11,T2_M11,T3_M11,T4_M11,T5_M11,U1_M11,ZSPAN_M11,X0_M11,X2_M11,X1_M11
2021-11-26 09:00:00,,0829.6,5.00,0.00,26.3,25.5,00.0,35.3,28.1,09.1,0000.0,0001.32,0000.57,0000.37
2021-11-26 09:01:00,,0829.6,5.01,0.00,26.3,25.5,00.0,35.3,28.1,09.1,0000.0,0001.27,0000.57,0000.37
2021-11-26 09:02:00,,0829.6,5.00,0.00,26.3,25.5,00.0,35.3,28.1,09.1,0000.0,0000.95,0000.55,0000.37
2021-11-26 09:03:00,,0829.6,5.00,0.00,26.3,25.5,00.0,35.3,28.1,09.1,0000.0,0000.97,0000.55,0000.36
2021-11-26 09:04:00,,0829.5,5.00,0.00,26.3,25.5,00.0,35.3,28.1,09.1,0000.0,0000.96,0000.54,0000.35
2021-11-26 09:05:00,,0829.6,4.99,0.00,26.3,25.5,00.0,35.3,28.1,09.1,0000.0,0001.02,0000.55,0000.35
2021-11-26 09:06:00,,0829.6,5.01,0.00,26.3,25.5,00.0,35.3,28.1,09.2,0000.0,0001.02,0000.55,0000.36
2021-11-26 09:07:00,,0829.5,5.00,0.00,26.3,25.5,00.0,35.3,28.1,09.2,0000.0,0001.01,0000.54,0000.36
2021-11-26 09:08:00,,0829.5,4.99,0.00,26.3,25.5,00.0,35.3,28.1,09.3,0000.0,0000.97,0000.52,0000.35
2021-11-26 09:09:00,,0829.5,5.01,0.00,26.3,25.5,00.0,35.3,28.1,09.2,0000.0,0000.85,0000.51,0000.35
2021-11-26 09:10:00,,0829.6,4.99,0.00,26.3,25.5,00.0,35.3,28.1,09.3,0000.0,0000.96,0000.52,0000.34
2021-11-26 09:11:00,,0829.5,5.01,0.00,26.3,25.5,00.0,35.3,28.1,09.3,0000.0,0000.95,0000.51,0000.34
2021-11-26 09:12:00,,0829.5,5.00,0.00,26.3,25.5,00.0,35.3,28.1,09.3,0000.0,0000.98,0000.51,0000.34
2021-11-26 09:13:00,,0829.4,4.99,0.00,26.3,25.5,00.0,35.3,28.1,09.3,0000.0,0001.05,0000.53,0000.33
2021-11-26 09:14:00,,0829.5,5.01,0.00,26.3,25.5,00.0,35.3,28.1,09.3,0000.0,0001.05,0000.51,0000.33
2021-11-26 09:15:00,,0829.5,4.99,0.00,26.3,25.5,00.0,35.3,28.1,09.3,0000.0,0001.11,0000.53,0000.33
2021-11-26 09:16:00,,0829.5,5.00,0.00,26.3,25.5,00.0,35.3,28.2,09.3,0000.0,0001.07,0000.52,0000.32
2021-11-26 09:17:00,,0829.5,5.02,0.00,26.3,25.6,00.0,35.3,28.2,09.3,0000.0,0001.14,0000.54,0000.32
2021-11-26 09:18:00,,0829.5,4.99,0.00,26.4,25.6,00.0,35.3,28.2,09.3,0000.0,0001.12,0000.55,0000.33
2021-11-26 09:19:00,,0829.5,5.01,0.00,26.4,25.6,00.0,35.3,28.2,09.3,0000.0,0001.11,0000.56,0000.33
2021-11-26 09:20:00,,0829.5,5.00,0.00,26.4,25.6,00.0,35.3,28.2,09.3,0000.0,0001.08,0000.54,0000.33
2021-11-26 09:21:00,,0829.5,4.99,0.00,26.4,25.6,00.0,35.3,28.2,09.3,0000.0,0000.95,0000.53,0000.33
2021-11-26 09:22:00,,0829.5,5.01,0.00,26.4,25.6,00.0,35.3,28.2,09.3,0000.0,0000.98,0000.54,0000.33
2021-11-26 09:23:00,,0829.5,5.00,0.00,26.4,25.6,00.0,35.3,28.2,09.3,0000.0,0000.99,0000.54,0000.33
2021-11-26 09:24:00,,0829.5,4.99,0.00,26.4,25.6,00.0,35.3,28.2,09.3,0000.0,0000.96,0000.55,0000.33
2021-11-26 09:25:00,,0829.5,5.00,0.00,26.4,25.5,00.0,35.3,28.2,09.3,0000.0,0000.89,0000.53,0000.33
2021-11-26 09:26:00,,0829.5,5.00,0.00,26.3,25.5,00.0,35.3,28.2,09.3,0000.0,0000.78,0000.49,0000.33
2021-11-26 09:27:00,,0829.6,5.01,0.00,26.3,25.5,00.0,35.3,28.1,09.3,0000.0,0000.87,0000.49,0000.33
2021-11-26 09:28:00,,0829.5,5.00,0.00,26.3,25.5,00.0,35.3,28.1,09.3,0000.0,0000.86,0000.47,0000.32
2021-11-26 09:29:00,,0829.5,5.00,0.00,26.3,25.5,00.0,35.3,28.1,09.3,0000.0,0000.84,0000.47,0000.32
2021-11-26 09:30:00,,0829.6,5.00,0.00,26.3,25.5,00.0,35.3,28.1,09.2,0000.0,0000.85,0000.46,0000.31
2021-11-26 09:31:00,,0829.5,5.01,0.00,26.3,25.5,00.0,35.3,28.1,09.3,0000.0,0000.91,0000.48,0000.31
2021-11-26 09:32:00,,0829.5,5.00,0.00,26.3,25.5,00.0,35.3,28.1,09.5,0000.0,0000.92,0000.48,0000.31
2021-11-26 09:33:00,,0829.6,4.99,0.00,26.3,25.5,00.0,35.3,28.1,09.4,0000.0,0000.91,0000.48,0000.31
2021-11-26 09:34:00,,0829.6,5.01,0.00,26.3,25.5,00.0,35.3,28.1,09.4,0000.0,0001.03,0000.51,0000.30
2021-11-26 09:35:00,,0829.6,5.01,0.00,26.3,25.6,00.0,35.3,28.1,09.4,0000.0,0001.06,0000.51,0000.30
2021-11-26 09:36:00,,0829.6,4.98,0.00,26.3,25.6,00.0,35.3,28.1,09.3,0000.0,0001.22,0000.54,0000.31
2021-11-26 09:37:00,,0829.6,5.00,0.00,26.4,25.6,00.0,35.3,28.1,09.3,0000.0,0001.27,0000.56,0000.32
2021-11-26 09:38:00,,0829.5,4.99,0.00,26.4,25.6,00.0,35.3,28.1,09.4,0000.0,0001.19,0000.56,0000.32
2021-11-26 09:39:00,,0829.6,5.00,0.00,26.4,25.6,00.0,35.3,28.2,09.4,0000.0,0001.09,0000.54,0000.32
2021-11-26 09:40:00,,0829.5,4.99,0.00,26.4,25.6,00.0,35.3,28.2,09.4,0000.0,0001.10,0000.53,0000.32
2021-11-26 09:41:00,,0829.5,5.01,0.00,26.4,25.6,00.0,35.3,28.2,09.4,0000.0,0001.12,0000.53,0000.32
2021-11-26 09:42:00,,0829.5,5.01,0.00,26.4,25.6,00.0,35.3,28.2,09.4,0000.0,0001.18,0000.56,0000.33
2021-11-26 09:43:00,,0829.5,4.98,0.00,26.4,25.6,00.0,35.4,28.2,09.4,0000.0,0001.17,0000.56,0000.34
2021-11-26 09:44:00,,0829.5,5.01,0.00,26.4,25.6,00.0,35.4,28.2,09.3,0000.0,0001.13,0000.56,0000.34
2021-11-26 09:45:00,,0829.6,4.99,0.00,26.4,25.6,00.0,35.4,28.2,09.4,0000.0,0001.02,0000.53,0000.35
2021-11-26 09:46:00,,0829.5,5.01,0.00,26.4,25.6,00.0,35.4,28.2,09.4,0000.0,0001.06,0000.54,0000.35
2021-11-26 09:47:00,,0829.5,4.99,0.00,26.4,25.6,00.0,35.4,28.2,09.4,0000.0,0000.98,0000.54,0000.35
2021-11-26 09:48:00,,0829.6,5.00,0.00,26.4,25.6,00.0,35.4,28.2,09.5,0000.0,0001.01,0000.54,0000.35
2021-11-26 09:49:00,,0829.6,4.99,0.00,26.4,25.6,00.0,35.4,28.3,09.6,0000.0,0000.98,0000.53,0000.33
2021-11-26 09:50:00,,0829.5,5.00,0.00,26.5,25.6,00.0,35.4,28.2,09.5,0000.0,0001.03,0000.54,0000.33
2021-11-26 09:51:00,,0829.5,5.01,0.00,26.4,25.6,00.0,35.4,28.2,09.5,0000.0,0001.05,0000.54,0000.33
2021-11-26 09:52:00,,0829.5,4.99,0.00,26.5,25.6,00.0,35.4,28.3,09.4,0000.0,0001.08,0000.55,0000.33
2021-11-26 09:53:00,,0829.5,4.99,0.00,26.5,25.6,00.0,35.4,28.2,09.4,0000.0,0001.07,0000.54,0000.32
2021-11-26 09:54:00,,0829.5,5.00,0.00,26.5,25.6,00.0,35.4,28.2,09.4,0000.0,0001.11,0000.54,0000.31
2021-11-26 09:55:00,,0829.5,5.01,0.00,26.5,25.6,00.0,35.4,28.2,09.1,0000.0,0001.11,0000.54,0000.32
2021-11-26 09:56:00,,0829.5,4.99,0.00,26.5,25.6,00.0,35.4,28.2,09.1,0000.0,0001.21,0000.55,0000.32
2021-11-26 09:57:00,,0829.5,5.01,0.00,26.5,25.6,00.0,35.4,28.2,09.2,0000.0,0001.18,0000.53,0000.31
2021-11-26 09:58:00,,0829.5,5.00,0.00,26.5,25.6,00.0,35.4,28.2,09.1,0000.0,0001.11,0000.51,0000.31
2021-11-26 09:59:00,,0829.5,4.99,0.00,26.5,25.6,00.0,35.4,28.3,09.1,0000.0,0001.02,0000.49,0000.32
